Time,TemperatureF,DewpointF,PressureIn,WindDirection,WindDirectionDegrees,WindSpeedMPH,WindSpeedGustMPH,Humidity,HourlyPrecipIn,Conditions,Clouds,dailyrainin,SoftwareType,DateUTC
2013-04-12 00:05:00,39.9,39.0,29.57,East,99,0.0,-999.0,95,-99.99,,,0.01,weatherlink.com 1.10,2013-04-12 04:05:00,
2013-04-12 00:20:00,39.9,39.0,29.58,East,99,0.0,-999.0,95,-99.99,,,0.02,weatherlink.com 1.10,2013-04-12 04:20:00,
2013-04-12 00:36:00,39.9,39.0,29.58,East,99,0.0,-999.0,95,-99.99,,,0.03,weatherlink.com 1.10,2013-04-12 04:36:00,
2013-04-12 00:51:00,40.0,39.0,29.57,East,99,0.0,-999.0,95,-99.99,,,0.04,weatherlink.com 1.10,2013-04-12 04:51:00,
2013-04-12 01:06:00,39.9,39.0,29.56,East,98,1.0,-999.0,95,-99.99,,,0.05,weatherlink.com 1.10,2013-04-12 05:06:00,
2013-04-12 01:51:00,39.8,39.0,29.57,East,92,0.0,-999.0,95,-99.99,,,0.06,weatherlink.com 1.10,2013-04-12 05:51:00,
2013-04-12 02:06:00,39.9,39.0,29.58,East,93,0.0,-999.0,95,-99.99,,,0.06,weatherlink.com 1.10,2013-04-12 06:06:00,
2013-04-12 02:21:00,40.0,39.0,29.57,East,93,0.0,-999.0,95,-99.99,,,0.06,weatherlink.com 1.10,2013-04-12 06:21:00,
2013-04-12 02:36:00,40.0,39.0,29.57,East,94,0.0,-999.0,95,-99.99,,,0.06,weatherlink.com 1.10,2013-04-12 06:36:00,
2013-04-12 02:51:00,40.1,39.0,29.56,East,93,0.0,-999.0,95,-99.99,,,0.06,weatherlink.com 1.10,2013-04-12 06:51:00,
2013-04-12 03:06:00,40.3,39.0,29.57,SSE,157,0.0,-999.0,95,-99.99,,,0.07,weatherlink.com 1.10,2013-04-12 07:06:00,
2013-04-12 03:21:00,41.0,41.0,29.57,WSW,252,9.0,-999.0,100,-99.99,,,0.07,weatherlink.com 1.10,2013-04-12 07:21:00,
2013-04-12 03:37:00,40.0,39.0,29.56,West,274,10.0,-999.0,95,-99.99,,,0.07,weatherlink.com 1.10,2013-04-12 07:37:00,
2013-04-12 03:52:00,39.6,38.0,29.56,WSW,257,9.0,-999.0,95,-99.99,,,0.07,weatherlink.com 1.10,2013-04-12 07:52:00,
2013-04-12 04:07:00,39.8,38.0,29.56,West,268,13.0,-999.0,94,-99.99,,,0.07,weatherlink.com 1.10,2013-04-12 08:07:00,
2013-04-12 04:22:00,39.6,38.0,29.56,West,277,7.0,-999.0,92,-99.99,,,0.07,weatherlink.com 1.10,2013-04-12 08:22:00,
2013-04-12 04:37:00,39.5,37.0,29.56,WNW,284,4.0,-999.0,92,-99.99,,,0.07,weatherlink.com 1.10,2013-04-12 08:37:00,
2013-04-12 04:52:00,39.4,37.0,29.57,West,270,6.0,-999.0,92,-99.99,,,0.07,weatherlink.com 1.10,2013-04-12 08:52:00,
2013-04-12 05:07:00,39.1,37.0,29.57,West,265,7.0,-999.0,93,-99.99,,,0.07,weatherlink.com 1.10,2013-04-12 09:07:00,
2013-04-12 05:22:00,38.9,37.0,29.57,West,261,6.0,-999.0,93,-99.99,,,0.07,weatherlink.com 1.10,2013-04-12 09:22:00,
2013-04-12 05:37:00,38.8,37.0,29.57,WSW,248,0.0,-999.0,93,-99.99,,,0.07,weatherlink.com 1.10,2013-04-12 09:37:00,
2013-04-12 05:52:00,38.8,37.0,29.57,WSW,252,7.0,-999.0,93,-99.99,,,0.07,weatherlink.com 1.10,2013-04-12 09:52:00,
2013-04-12 06:07:00,38.7,37.0,29.57,WSW,238,10.0,-999.0,93,-99.99,,,0.07,weatherlink.com 1.10,2013-04-12 10:07:00,
2013-04-12 06:22:00,38.4,37.0,29.57,WSW,257,7.0,-999.0,94,-99.99,,,0.07,weatherlink.com 1.10,2013-04-12 10:22:00,
2013-04-12 06:38:00,38.0,37.0,29.57,West,262,9.0,-999.0,94,-99.99,,,0.07,weatherlink.com 1.10,2013-04-12 10:38:00,
2013-04-12 06:53:00,37.7,36.0,29.57,WSW,251,10.0,-999.0,92,-99.99,,,0.07,weatherlink.com 1.10,2013-04-12 10:53:00,
2013-04-12 07:08:00,37.4,35.0,29.58,WSW,247,10.0,-999.0,91,-99.99,,,0.07,weatherlink.com 1.10,2013-04-12 11:08:00,
2013-04-12 07:23:00,37.4,35.0,29.59,WSW,254,10.0,-999.0,90,-99.99,,,0.07,weatherlink.com 1.10,2013-04-12 11:23:00,
2013-04-12 07:38:00,37.4,35.0,29.59,WSW,242,8.0,-999.0,90,-99.99,,,0.07,weatherlink.com 1.10,2013-04-12 11:38:00,
2013-04-12 07:53:00,37.4,35.0,29.60,WSW,255,5.0,-999.0,89,-99.99,,,0.07,weatherlink.com 1.10,2013-04-12 11:53:00,
2013-04-12 08:08:00,37.4,34.0,29.60,WSW,258,10.0,-999.0,86,-99.99,,,0.07,weatherlink.com 1.10,2013-04-12 12:08:00,
2013-04-12 08:23:00,37.4,34.0,29.61,West,275,6.0,-999.0,86,-99.99,,,0.07,weatherlink.com 1.10,2013-04-12 12:23:00,
2013-04-12 08:38:00,37.6,34.0,29.61,WSW,246,8.0,-999.0,86,-99.99,,,0.07,weatherlink.com 1.10,2013-04-12 12:38:00,
2013-04-12 08:53:00,37.4,33.0,29.62,SW,236,11.0,-999.0,85,-99.99,,,0.07,weatherlink.com 1.10,2013-04-12 12:53:00,
2013-04-12 09:08:00,37.5,33.0,29.62,WSW,242,9.0,-999.0,84,-99.99,,,0.07,weatherlink.com 1.10,2013-04-12 13:08:00,
2013-04-12 09:24:00,37.4,33.0,29.62,WSW,241,4.0,-999.0,84,-99.99,,,0.07,weatherlink.com 1.10,2013-04-12 13:24:00,
2013-04-12 09:39:00,37.5,33.0,29.62,WSW,243,8.0,-999.0,84,-99.99,,,0.07,weatherlink.com 1.10,2013-04-12 13:39:00,
2013-04-12 09:54:00,37.7,34.0,29.63,WSW,248,4.0,-999.0,85,-99.99,,,0.07,weatherlink.com 1.10,2013-04-12 13:54:00,
2013-04-12 10:09:00,37.8,34.0,29.63,SW,226,8.0,-999.0,85,-99.99,,,0.07,weatherlink.com 1.10,2013-04-12 14:09:00,
2013-04-12 10:24:00,38.0,34.0,29.63,WSW,248,9.0,-999.0,84,-99.99,,,0.07,weatherlink.com 1.10,2013-04-12 14:24:00,
2013-04-12 10:39:00,38.2,34.0,29.64,WSW,246,1.0,-999.0,84,-99.99,,,0.07,weatherlink.com 1.10,2013-04-12 14:39:00,
2013-04-12 10:54:00,38.1,34.0,29.64,SSW,213,0.0,-999.0,84,-99.99,,,0.07,weatherlink.com 1.10,2013-04-12 14:54:00,
2013-04-12 11:09:00,37.8,33.0,29.65,WSW,242,10.0,-999.0,84,-99.99,,,0.07,weatherlink.com 1.10,2013-04-12 15:09:00,
2013-04-12 11:24:00,38.0,33.0,29.65,WSW,242,14.0,-999.0,83,-99.99,,,0.07,weatherlink.com 1.10,2013-04-12 15:24:00,
2013-04-12 11:39:00,38.1,33.0,29.65,SW,214,1.0,-999.0,82,-99.99,,,0.07,weatherlink.com 1.10,2013-04-12 15:39:00,
2013-04-12 11:54:00,38.1,33.0,29.65,SW,236,9.0,-999.0,82,-99.99,,,0.07,weatherlink.com 1.10,2013-04-12 15:54:00,
2013-04-12 12:10:00,38.3,34.0,29.65,SW,233,0.0,-999.0,83,-99.99,,,0.07,weatherlink.com 1.10,2013-04-12 16:10:00,
2013-04-12 12:25:00,39.3,34.0,29.66,SW,230,1.0,-999.0,81,-99.99,,,0.07,weatherlink.com 1.10,2013-04-12 16:25:00,
2013-04-12 12:40:00,39.4,34.0,29.66,WSW,256,8.0,-999.0,80,-99.99,,,0.07,weatherlink.com 1.10,2013-04-12 16:40:00,
2013-04-12 12:55:00,39.2,34.0,29.67,WSW,253,8.0,-999.0,81,-99.99,,,0.07,weatherlink.com 1.10,2013-04-12 16:55:00,
2013-04-12 13:10:00,39.6,35.0,29.67,SW,234,0.0,-999.0,82,-99.99,,,0.07,weatherlink.com 1.10,2013-04-12 17:10:00,
2013-04-12 13:25:00,40.0,35.0,29.67,SSW,208,0.0,-999.0,82,-99.99,,,0.07,weatherlink.com 1.10,2013-04-12 17:25:00,
2013-04-12 13:40:00,40.5,34.0,29.67,WSW,248,2.0,-999.0,79,-99.99,,,0.07,weatherlink.com 1.10,2013-04-12 17:40:00,
2013-04-12 14:10:00,39.7,35.0,29.68,SW,225,6.0,-999.0,83,-99.99,,,0.07,weatherlink.com 1.10,2013-04-12 18:10:00,
2013-04-12 14:25:00,40.6,36.0,29.67,SW,217,7.0,-999.0,83,-99.99,,,0.07,weatherlink.com 1.10,2013-04-12 18:25:00,
2013-04-12 15:41:00,43.2,36.0,29.70,SW,233,17.0,-999.0,77,-99.99,,,0.07,weatherlink.com 1.10,2013-04-12 19:41:00,
2013-04-12 15:56:00,42.2,36.0,29.70,SW,234,12.0,-999.0,79,-99.99,,,0.07,weatherlink.com 1.10,2013-04-12 19:56:00,
2013-04-12 16:11:00,42.4,37.0,29.71,SW,233,4.0,-999.0,80,-99.99,,,0.07,weatherlink.com 1.10,2013-04-12 20:11:00,
2013-04-12 16:26:00,42.4,37.0,29.71,SW,232,0.0,-999.0,80,-99.99,,,0.07,weatherlink.com 1.10,2013-04-12 20:26:00,
2013-04-12 16:41:00,42.0,37.0,29.71,WSW,252,11.0,-999.0,83,-99.99,,,0.07,weatherlink.com 1.10,2013-04-12 20:41:00,
2013-04-12 16:56:00,41.9,37.0,29.71,WSW,250,2.0,-999.0,82,-99.99,,,0.08,weatherlink.com 1.10,2013-04-12 20:56:00,
2013-04-12 17:11:00,43.0,37.0,29.72,SW,230,13.0,-999.0,78,-99.99,,,0.08,weatherlink.com 1.10,2013-04-12 21:11:00,
2013-04-12 17:27:00,43.3,36.0,29.72,WSW,245,14.0,-999.0,76,-99.99,,,0.08,weatherlink.com 1.10,2013-04-12 21:27:00,
2013-04-12 17:42:00,42.7,38.0,29.73,WSW,237,2.0,-999.0,82,-99.99,,,0.08,weatherlink.com 1.10,2013-04-12 21:42:00,
2013-04-12 17:57:00,42.6,38.0,29.73,SW,235,18.0,-999.0,82,-99.99,,,0.08,weatherlink.com 1.10,2013-04-12 21:57:00,
2013-04-12 18:12:00,42.3,38.0,29.74,WSW,242,10.0,-999.0,84,-99.99,,,0.08,weatherlink.com 1.10,2013-04-12 22:12:00,
2013-04-12 18:27:00,41.7,38.0,29.75,SW,228,1.0,-999.0,87,-99.99,,,0.08,weatherlink.com 1.10,2013-04-12 22:27:00,
2013-04-12 18:42:00,41.3,38.0,29.76,SW,235,3.0,-999.0,88,-99.99,,,0.08,weatherlink.com 1.10,2013-04-12 22:42:00,
2013-04-12 18:57:00,40.8,38.0,29.76,West,275,2.0,-999.0,90,-99.99,,,0.08,weatherlink.com 1.10,2013-04-12 22:57:00,
2013-04-12 19:12:00,41.0,38.0,29.76,WSW,247,2.0,-999.0,90,-99.99,,,0.08,weatherlink.com 1.10,2013-04-12 23:12:00,
2013-04-12 19:27:00,40.9,38.0,29.77,WSW,245,8.0,-999.0,89,-99.99,,,0.08,weatherlink.com 1.10,2013-04-12 23:27:00,
2013-04-12 19:42:00,40.9,38.0,29.77,WSW,238,16.0,-999.0,88,-99.99,,,0.08,weatherlink.com 1.10,2013-04-12 23:42:00,
2013-04-12 19:57:00,40.9,38.0,29.77,WSW,248,0.0,-999.0,88,-99.99,,,0.08,weatherlink.com 1.10,2013-04-12 23:57:00,
2013-04-12 20:12:00,40.9,38.0,29.77,WSW,246,3.0,-999.0,89,-99.99,,,0.08,weatherlink.com 1.10,2013-04-13 00:12:00,
2013-04-12 20:28:00,40.2,37.0,29.77,WSW,238,19.0,-999.0,88,-99.99,,,0.08,weatherlink.com 1.10,2013-04-13 00:28:00,
2013-04-12 20:43:00,40.3,37.0,29.78,WSW,242,16.0,-999.0,88,-99.99,,,0.08,weatherlink.com 1.10,2013-04-13 00:43:00,
2013-04-12 20:58:00,40.4,37.0,29.79,WSW,258,10.0,-999.0,88,-99.99,,,0.08,weatherlink.com 1.10,2013-04-13 00:58:00,
2013-04-12 21:13:00,40.4,36.0,29.79,WSW,250,16.0,-999.0,85,-99.99,,,0.08,weatherlink.com 1.10,2013-04-13 01:13:00,
2013-04-12 21:28:00,40.4,36.0,29.80,WSW,254,10.0,-999.0,84,-99.99,,,0.08,weatherlink.com 1.10,2013-04-13 01:28:00,
2013-04-12 21:43:00,39.8,35.0,29.81,West,281,14.0,-999.0,84,-99.99,,,0.08,weatherlink.com 1.10,2013-04-13 01:43:00,
2013-04-12 21:58:00,39.5,35.0,29.81,WSW,238,11.0,-999.0,85,-99.99,,,0.08,weatherlink.com 1.10,2013-04-13 01:58:00,
2013-04-12 22:13:00,38.6,35.0,29.82,WSW,254,7.0,-999.0,87,-99.99,,,0.08,weatherlink.com 1.10,2013-04-13 02:13:00,
2013-04-12 22:28:00,38.7,35.0,29.82,SW,230,7.0,-999.0,86,-99.99,,,0.08,weatherlink.com 1.10,2013-04-13 02:28:00,
2013-04-12 22:43:00,38.8,35.0,29.83,WSW,252,1.0,-999.0,85,-99.99,,,0.08,weatherlink.com 1.10,2013-04-13 02:43:00,
2013-04-12 22:58:00,38.9,35.0,29.83,WSW,248,11.0,-999.0,85,-99.99,,,0.08,weatherlink.com 1.10,2013-04-13 02:58:00,
2013-04-12 23:14:00,38.8,34.0,29.83,West,265,13.0,-999.0,83,-99.99,,,0.08,weatherlink.com 1.10,2013-04-13 03:14:00,
2013-04-12 23:29:00,38.6,33.0,29.83,WSW,247,15.0,-999.0,80,-99.99,,,0.08,weatherlink.com 1.10,2013-04-13 03:29:00,
2013-04-12 23:44:00,38.6,32.0,29.83,WSW,253,9.0,-999.0,77,-99.99,,,0.08,weatherlink.com 1.10,2013-04-13 03:44:00,
2013-04-12 23:59:00,38.4,31.0,29.83,West,261,8.0,-999.0,76,-99.99,,,0.08,weatherlink.com 1.10,2013-04-13 03:59:00,